QPF
0.08 0.07 0.11 0.16 0.13 0.12 0.08 0.07 0.10 0.13 0.07 0.07 0.07 0.06 0.08 0.08 0.07 0.08 0.07 0.09 0.11 0.12 0.15 0.15 0.10 0.07 0.08 0.08 0.09 0.11 0.14 0.13 0.13 0.13 0.14 0.16 0.18 0.17 0.12 0.11 0.13 0.09 0.10
0.07 0.06 0.10 0.15 0.12 0.12 0.09 0.09 0.11 0.10 0.08 0.08 0.07 0.08 0.09 0.07 0.06 0.07 0.08 0.11 0.13 0.14 0.15 0.11 0.08 0.09 0.10 0.10 0.11 0.10 0.13 0.15 0.13 0.11 0.12 0.14 0.20 0.23 0.22 0.20 0.15 0.10 0.11
0.08 0.07 0.08 0.13 0.15 0.13 0.10 0.10 0.11 0.10 0.08 0.09 0.08 0.09 0.09 0.08 0.09 0.09 0.11 0.13 0.14 0.14 0.16 0.14 0.11 0.12 0.14 0.12 0.12 0.10 0.12 0.15 0.11 0.10 0.14 0.15 0.20 0.26 0.37 0.31 0.19 0.14 0.12
0.09 0.10 0.09 0.17 0.22 0.14 0.09 0.09 0.10 0.10 0.09 0.09 0.08 0.08 0.09 0.12 0.15 0.17 0.17 0.15 0.13 0.11 0.13 0.14 0.12 0.13 0.14 0.16 0.12 0.09 0.10 0.12 0.10 0.11 0.13 0.14 0.22 0.28 0.33 0.37 0.30 0.21 0.16
0.07 0.11 0.18 0.28 0.23 0.14 0.09 0.08 0.06 0.07 0.07 0.08 0.08 0.09 0.11 0.16 0.20 0.21 0.23 0.19 0.13 0.07 0.08 0.10 0.10 0.10 0.11 0.12 0.10 0.08 0.09 0.10 0.11 0.11 0.09 0.10 0.15 0.19 0.19 0.22 0.21 0.15 0.11
0.06 0.15 0.24 0.27 0.17 0.10 0.06 0.04 0.04 0.04 0.05 0.06 0.07 0.09 0.11 0.12 0.14 0.15 0.15 0.14 0.11 0.08 0.07 0.09 0.07 0.06 0.09 0.09 0.08 0.08 0.08 0.11 0.14 0.11 0.08 0.08 0.09 0.13 0.13 0.13 0.11 0.09 0.08
0.12 0.17 0.17 0.16 0.11 0.06 0.04 0.03 0.03 0.03 0.04 0.04 0.05 0.05 0.06 0.05 0.06 0.07 0.08 0.09 0.10 0.08 0.08 0.09 0.07 0.05 0.06 0.06 0.06 0.07 0.08 0.11 0.13 0.11 0.08 0.09 0.11 0.12 0.13 0.13 0.10 0.08 0.06
0.14 0.12 0.12 0.12 0.07 0.04 0.03 0.03 0.02 0.02 0.03 0.03 0.03 0.03 0.03 0.03 0.04 0.05 0.07 0.08 0.08 0.08 0.07 0.07 0.06 0.06 0.06 0.06 0.05 0.06 0.06 0.08 0.10 0.08 0.09 0.12 0.16 0.16 0.17 0.16 0.11 0.10 0.08
0.13 0.13 0.11 0.10 0.05 0.03 0.03 0.03 0.02 0.02 0.03 0.04 0.04 0.04 0.03 0.03 0.04 0.06 0.07 0.07 0.07 0.06 0.06 0.06 0.05 0.08 0.08 0.06 0.05 0.06 0.07 0.09 0.13 0.09 0.11 0.14 0.16 0.24 0.22 0.18 0.15 0.12 0.10
0.10 0.10 0.09 0.06 0.04 0.05 0.04 0.03 0.03 0.02 0.02 0.04 0.04 0.05 0.04 0.05 0.07 0.09 0.07 0.09 0.08 0.07 0.07 0.06 0.07 0.08 0.07 0.07 0.07 0.07 0.10 0.12 0.13 0.13 0.16 0.16 0.11 0.20 0.30 0.25 0.20 0.16 0.14
0.09 0.08 0.07 0.04 0.05 0.04 0.03 0.03 0.04 0.02 0.02 0.04 0.07 0.07 0.07 0.11 0.13 0.12 0.10 0.11 0.09 0.06 0.07 0.07 0.08 0.08 0.08 0.10 0.12 0.10 0.13 0.14 0.14 0.16 0.16 0.15 0.10 0.10 0.18 0.18 0.16 0.21 0.21
0.08 0.06 0.05 0.04 0.04 0.04 0.03 0.05 0.08 0.05 0.05 0.07 0.08 0.09 0.11 0.12 0.11 0.09 0.12 0.12 0.10 0.08 0.07 0.08 0.07 0.07 0.09 0.11 0.16 0.16 0.14 0.13 0.11 0.12 0.11 0.11 0.10 0.07 0.08 0.08 0.13 0.26 0.28
0.05 0.04 0.05 0.04 0.03 0.03 0.04 0.05 0.06 0.06 0.06 0.06 0.07 0.08 0.10 0.11 0.10 0.09 0.12 0.16 0.15 0.09 0.07 0.06 0.10 0.10 0.08 0.09 0.11 0.12 0.14 0.11 0.11 0.11 0.10 0.09 0.07 0.05 0.06 0.06 0.07 0.13 0.18
0.03 0.03 0.04 0.03 0.03 0.02 0.03 0.03 0.03 0.03 0.03 0.05 0.06 0.06 0.08 0.09 0.10 0.11 0.12 0.13 0.13 0.11 0.08 0.07 0.10 0.09 0.10 0.09 0.11 0.14 0.15 0.13 0.11 0.11 0.11 0.07 0.06 0.06 0.07 0.06 0.06 0.06 0.08
0.02 0.01 0.02 0.02 0.03 0.03 0.04 0.04 0.03 0.03 0.03 0.04 0.05 0.05 0.07 0.08 0.09 0.09 0.10 0.11 0.10 0.10 0.08 0.08 0.08 0.09 0.10 0.08 0.08 0.09 0.11 0.11 0.12 0.09 0.09 0.08 0.08 0.08 0.07 0.07 0.06 0.04 0.06
0.01 0.01 0.01 0.02 0.02 0.03 0.03 0.04 0.04 0.03 0.04 0.04 0.04 0.04 0.06 0.08 0.09 0.08 0.08 0.10 0.10 0.11 0.11 0.09 0.08 0.10 0.09 0.06 0.06 0.06 0.10 0.13 0.12 0.11 0.12 0.13 0.12 0.09 0.07 0.08 0.07 0.06 0.06
0.01 0.01 0.01 0.01 0.01 0.02 0.03 0.03 0.04 0.03 0.04 0.04 0.06 0.10 0.10 0.08 0.09 0.08 0.09 0.10 0.09 0.10 0.10 0.10 0.11 0.12 0.10 0.09 0.06 0.06 0.08 0.12 0.13 0.14 0.14 0.16 0.15 0.11 0.08 0.06 0.08 0.10 0.08
0.01 0.02 0.02 0.01 0.00 0.01 0.03 0.04 0.04 0.03 0.04 0.06 0.08 0.18 0.10 0.06 0.08 0.10 0.10 0.08 0.08 0.08 0.09 0.10 0.10 0.10 0.09 0.06 0.04 0.04 0.04 0.06 0.09 0.11 0.09 0.11 0.13 0.12 0.09 0.08 0.09 0.10 0.08
0.01 0.01 0.01 0.02 0.02 0.02 0.03 0.04 0.05 0.05 0.06 0.06 0.07 0.08 0.07 0.06 0.06 0.07 0.08 0.07 0.07 0.07 0.09 0.08 0.09 0.08 0.07 0.06 0.06 0.06 0.05 0.05 0.04 0.04 0.06 0.10 0.10 0.09 0.08 0.08 0.06 0.06 0.05
0.01 0.01 0.01 0.02 0.03 0.03 0.05 0.06 0.07 0.07 0.06 0.05 0.06 0.06 0.07 0.06 0.06 0.07 0.07 0.07 0.08 0.09 0.10 0.12 0.12 0.10 0.08 0.08 0.07 0.08 0.06 0.07 0.05 0.04 0.05 0.08 0.09 0.08 0.07 0.07 0.08 0.05 0.04
0.01 0.02 0.02 0.02 0.04 0.05 0.07 0.07 0.07 0.08 0.08 0.06 0.05 0.05 0.05 0.04 0.05 0.07 0.07 0.07 0.07 0.09 0.11 0.11 0.13 0.12 0.08 0.07 0.09 0.10 0.08 0.08 0.06 0.05 0.06 0.07 0.07 0.08 0.08 0.07 0.11 0.09 0.06
0.01 0.03 0.03 0.03 0.03 0.03 0.05 0.05 0.06 0.07 0.06 0.07 0.07 0.08 0.04 0.03 0.04 0.05 0.07 0.06 0.06 0.08 0.09 0.09 0.09 0.09 0.07 0.08 0.11 0.12 0.13 0.11 0.09 0.07 0.07 0.06 0.06 0.08 0.09 0.08 0.10 0.11 0.10
0.01 0.02 0.03 0.03 0.03 0.04 0.05 0.05 0.05 0.05 0.06 0.09 0.12 0.11 0.08 0.07 0.05 0.06 0.07 0.05 0.05 0.06 0.08 0.07 0.06 0.08 0.08 0.08 0.09 0.11 0.13 0.13 0.13 0.10 0.08 0.06 0.05 0.06 0.07 0.09 0.09 0.09 0.10
0.00 0.01 0.02 0.03 0.04 0.04 0.03 0.04 0.06 0.05 0.05 0.06 0.09 0.09 0.08 0.09 0.09 0.08 0.06 0.05 0.05 0.05 0.08 0.06 0.06 0.07 0.08 0.08 0.07 0.08 0.09 0.12 0.12 0.12 0.09 0.06 0.04 0.04 0.04 0.04 0.06 0.08 0.08
0.00 0.00 0.01 0.02 0.03 0.03 0.03 0.03 0.05 0.05 0.04 0.04 0.06 0.08 0.08 0.10 0.08 0.07 0.06 0.05 0.05 0.06 0.08 0.07 0.07 0.06 0.05 0.07 0.08 0.08 0.10 0.12 0.10 0.10 0.10 0.09 0.06 0.04 0.03 0.03 0.04 0.05 0.07
0.00 0.01 0.00 0.02 0.02 0.03 0.04 0.04 0.04 0.04 0.04 0.05 0.07 0.08 0.10 0.09 0.08 0.07 0.07 0.06 0.05 0.06 0.08 0.09 0.07 0.05 0.05 0.07 0.08 0.08 0.08 0.08 0.08 0.08 0.08 0.08 0.07 0.05 0.03 0.03 0.04 0.07 0.10
MSLP
1006.47 1006.29 1006.33 1006.50 1006.69 1006.76 1006.63 1006.28 1005.72 1005.03 1004.27 1003.47 1002.63 1001.67 1000.50 999.04 997.28 995.30 993.27 991.47 990.15 989.55 989.79 990.85 992.59 994.76 997.07 999.23 1001.07 1002.51 1003.58 1004.41 1005.13 1005.87 1006.69 1007.61 1008.55 1009.44 1010.17 1010.71 1011.05 1011.23 1011.34
1006.41 1006.33 1006.45 1006.70 1006.93 1007.03 1006.91 1006.55 1005.98 1005.28 1004.52 1003.77 1003.03 1002.23 1001.30 1000.15 998.76 997.17 995.54 994.06 992.98 992.49 992.69 993.58 995.03 996.84 998.76 1000.55 1002.08 1003.28 1004.19 1004.91 1005.58 1006.28 1007.08 1007.96 1008.85 1009.68 1010.36 1010.86 1011.18 1011.37 1011.50
1006.28 1006.30 1006.52 1006.85 1007.14 1007.29 1007.20 1006.85 1006.30 1005.60 1004.87 1004.18 1003.52 1002.88 1002.16 1001.31 1000.27 999.08 997.84 996.71 995.89 995.52 995.70 996.42 997.59 999.03 1000.55 1001.96 1003.16 1004.12 1004.86 1005.49 1006.09 1006.76 1007.52 1008.34 1009.17 1009.92 1010.53 1010.98 1011.29 1011.49 1011.66
1006.07 1006.19 1006.51 1006.92 1007.29 1007.49 1007.45 1007.15 1006.63 1005.98 1005.30 1004.65 1004.09 1003.56 1003.03 1002.42 1001.69 1000.85 999.96 999.15 998.57 998.33 998.51 999.09 1000.00 1001.11 1002.26 1003.33 1004.23 1004.96 1005.56 1006.10 1006.66 1007.29 1008.01 1008.77 1009.51 1010.17 1010.70 1011.09 1011.37 1011.59 1011.79
1005.80 1006.02 1006.42 1006.90 1007.33 1007.60 1007.63 1007.40 1006.95 1006.37 1005.75 1005.17 1004.68 1004.26 1003.86 1003.44 1002.94 1002.36 1001.76 1001.23 1000.86 1000.74 1000.92 1001.39 1002.09 1002.92 1003.77 1004.54 1005.20 1005.75 1006.24 1006.72 1007.25 1007.85 1008.53 1009.22 1009.87 1010.43 1010.87 1011.20 1011.45 1011.67 1011.91
1005.54 1005.82 1006.27 1006.79 1007.27 1007.59 1007.69 1007.54 1007.19 1006.70 1006.17 1005.68 1005.27 1004.92 1004.62 1004.32 1003.98 1003.61 1003.22 1002.89 1002.69 1002.67 1002.86 1003.25 1003.78 1004.39 1005.00 1005.54 1006.02 1006.44 1006.85 1007.30 1007.81 1008.40 1009.04 1009.67 1010.23 1010.70 1011.05 1011.31 1011.52 1011.74 1012.02
1005.35 1005.65 1006.11 1006.64 1007.13 1007.48 1007.62 1007.56 1007.30 1006.93 1006.51 1006.12 1005.79 1005.52 1005.30 1005.08 1004.86 1004.61 1004.37 1004.19 1004.10 1004.15 1004.34 1004.67 1005.08 1005.51 1005.93 1006.31 1006.65 1006.98 1007.35 1007.78 1008.30 1008.89 1009.50 1010.08 1010.57 1010.96 1011.24 1011.43 1011.61 1011.83 1012.12
1005.30 1005.58 1006.00 1006.49 1006.95 1007.29 1007.45 1007.44 1007.28 1007.02 1006.73 1006.45 1006.22 1006.03 1005.88 1005.73 1005.58 1005.42 1005.27 1005.18 1005.17 1005.26 1005.45 1005.72 1006.02 1006.33 1006.61 1006.86 1007.10 1007.37 1007.71 1008.14 1008.67 1009.26 1009.86 1010.41 1010.87 1011.20 1011.42 1011.57 1011.72 1011.93 1012.23
1005.43 1005.66 1006.01 1006.42 1006.80 1007.08 1007.23 1007.24 1007.14 1006.98 1006.80 1006.65 1006.53 1006.44 1006.36 1006.27 1006.18 1006.08 1006.00 1005.96 1005.99 1006.10 1006.27 1006.49 1006.71 1006.91 1007.07 1007.22 1007.38 1007.60 1007.92 1008.35 1008.89 1009.49 1010.10 1010.65 1011.08 1011.40 1011.59 1011.73 1011.87 1012.06 1012.36
1005.74 1005.91 1006.18 1006.48 1006.75 1006.93 1007.01 1007.01 1006.94 1006.85 1006.78 1006.73 1006.72 1006.73 1006.73 1006.71 1006.67 1006.62 1006.59 1006.59 1006.64 1006.75 1006.90 1007.07 1007.21 1007.32 1007.39 1007.46 1007.55 1007.72 1008.01 1008.43 1008.97 1009.59 1010.21 1010.77 1011.23 1011.55 1011.76 1011.91 1012.04 1012.23 1012.51
1006.19 1006.31 1006.50 1006.68 1006.82 1006.89 1006.88 1006.82 1006.75 1006.70 1006.70 1006.74 1006.83 1006.92 1007.00 1007.05 1007.06 1007.06 1007.06 1007.08 1007.15 1007.26 1007.39 1007.51 1007.60 1007.63 1007.63 1007.62 1007.65 1007.78 1008.03 1008.44 1008.97 1009.59 1010.23 1010.82 1011.30 1011.66 1011.91 1012.09 1012.24 1012.44 1012.70
1006.72 1006.81 1006.93 1007.01 1007.03 1006.98 1006.87 1006.74 1006.64 1006.60 1006.63 1006.74 1006.89 1007.05 1007.19 1007.29 1007.35 1007.38 1007.41 1007.46 1007.54 1007.64 1007.76 1007.85 1007.90 1007.89 1007.84 1007.78 1007.76 1007.84 1008.06 1008.43 1008.95 1009.56 1010.20 1010.81 1011.33 1011.73 1012.04 1012.26 1012.45 1012.65 1012.90
1007.23 1007.33 1007.40 1007.42 1007.34 1007.19 1006.99 1006.80 1006.66 1006.60 1006.64 1006.77 1006.96 1007.16 1007.33 1007.47 1007.55 1007.61 1007.65 1007.71 1007.80 1007.91 1008.02 1008.10 1008.14 1008.11 1008.04 1007.96 1007.92 1007.97 1008.15 1008.49 1008.97 1009.55 1010.18 1010.79 1011.33 1011.78 1012.13 1012.40 1012.63 1012.85 1013.09
1007.65 1007.77 1007.84 1007.82 1007.69 1007.48 1007.23 1006.99 1006.81 1006.73 1006.77 1006.90 1007.09 1007.29 1007.47 1007.60 1007.69 1007.74 1007.79 1007.86 1007.95 1008.07 1008.19 1008.28 1008.34 1008.33 1008.28 1008.21 1008.17 1008.21 1008.37 1008.66 1009.09 1009.63 1010.21 1010.80 1011.33 1011.80 1012.18 1012.50 1012.76 1013.01 1013.25
1007.93 1008.09 1008.17 1008.15 1008.01 1007.78 1007.51 1007.26 1007.08 1007.00 1007.02 1007.13 1007.30 1007.47 1007.62 1007.73 1007.79 1007.83 1007.87 1007.93 1008.03 1008.15 1008.29 1008.42 1008.51 1008.55 1008.54 1008.52 1008.52 1008.57 1008.71 1008.97 1009.34 1009.81 1010.32 1010.85 1011.35 1011.80 1012.19 1012.52 1012.81 1013.08 1013.33
1008.06 1008.24 1008.35 1008.34 1008.23 1008.03 1007.80 1007.59 1007.43 1007.36 1007.38 1007.47 1007.60 1007.73 1007.83 1007.89 1007.91 1007.92 1007.93 1007.98 1008.08 1008.21 1008.37 1008.53 1008.67 1008.78 1008.84 1008.89 1008.94 1009.02 1009.17 1009.40 1009.71 1010.10 1010.52 1010.95 1011.38 1011.77 1012.13 1012.46 1012.76 1013.04 1013.31
1008.06 1008.26 1008.38 1008.40 1008.34 1008.20 1008.05 1007.90 1007.81 1007.78 1007.81 1007.88 1007.97 1008.04 1008.08 1008.09 1008.07 1008.04 1008.03 1008.06 1008.15 1008.28 1008.46 1008.65 1008.84 1009.01 1009.15 1009.27 1009.39 1009.53 1009.69 1009.90 1010.16 1010.45 1010.77 1011.10 1011.42 1011.74 1012.04 1012.34 1012.63 1012.92 1013.20
1008.00 1008.19 1008.31 1008.36 1008.35 1008.29 1008.23 1008.19 1008.17 1008.20 1008.25 1008.31 1008.36 1008.39 1008.37 1008.33 1008.27 1008.21 1008.18 1008.21 1008.28 1008.42 1008.60 1008.81 1009.03 1009.24 1009.45 1009.64 1009.83 1010.01 1010.21 1010.41 1010.62 1010.83 1011.05 1011.27 1011.48 1011.70 1011.93 1012.18 1012.45 1012.73 1013.02
1007.93 1008.08 1008.19 1008.26 1008.30 1008.33 1008.37 1008.43 1008.50 1008.58 1008.66 1008.72 1008.74 1008.72 1008.67 1008.59 1008.51 1008.44 1008.41 1008.43 1008.51 1008.64 1008.81 1009.02 1009.24 1009.48 1009.72 1009.96 1010.20 1010.43 1010.65 1010.86 1011.04 1011.20 1011.33 1011.44 1011.56 1011.69 1011.84 1012.03 1012.27 1012.54 1012.83
1007.85 1007.97 1008.07 1008.16 1008.25 1008.36 1008.50 1008.64 1008.79 1008.92 1009.02 1009.07 1009.06 1009.01 1008.93 1008.84 1008.76 1008.71 1008.70 1008.74 1008.82 1008.95 1009.11 1009.29 1009.49 1009.72 1009.96 1010.22 1010.48 1010.75 1011.00 1011.22 1011.39 1011.51 1011.58 1011.63 1011.66 1011.71 1011.80 1011.94 1012.14 1012.39 1012.67
1007.78 1007.88 1007.98 1008.09 1008.23 1008.41 1008.62 1008.84 1009.05 1009.21 1009.31 1009.34 1009.31 1009.23 1009.14 1009.05 1008.99 1008.98 1009.02 1009.10 1009.20 1009.33 1009.46 1009.61 1009.77 1009.95 1010.17 1010.41 1010.68 1010.96 1011.23 1011.47 1011.64 1011.76 1011.81 1011.81 1011.80 1011.80 1011.85 1011.95 1012.11 1012.34 1012.60
1007.67 1007.78 1007.90 1008.04 1008.24 1008.48 1008.76 1009.03 1009.27 1009.44 1009.53 1009.53 1009.46 1009.36 1009.26 1009.20 1009.18 1009.23 1009.33 1009.47 1009.61 1009.75 1009.87 1009.97 1010.07 1010.20 1010.35 1010.56 1010.81 1011.09 1011.37 1011.63 1011.82 1011.95 1012.00 1012.00 1011.98 1011.96 1011.97 1012.05 1012.20 1012.40 1012.64
1007.45 1007.61 1007.78 1007.98 1008.24 1008.54 1008.87 1009.18 1009.43 1009.60 1009.66 1009.63 1009.53 1009.41 1009.31 1009.28 1009.32 1009.44 1009.62 1009.82 1010.01 1010.17 1010.28 1010.35 1010.39 1010.45 1010.54 1010.70 1010.92 1011.18 1011.46 1011.73 1011.96 1012.11 1012.18 1012.19 1012.17 1012.15 1012.17 1012.24 1012.37 1012.57 1012.79
1007.08 1007.32 1007.55 1007.83 1008.15 1008.51 1008.89 1009.24 1009.51 1009.67 1009.71 1009.65 1009.53 1009.40 1009.31 1009.30 1009.39 1009.59 1009.84 1010.12 1010.37 1010.56 1010.67 1010.71 1010.72 1010.71 1010.75 1010.85 1011.03 1011.27 1011.55 1011.83 1012.07 1012.24 1012.34 1012.37 1012.37 1012.36 1012.38 1012.45 1012.59 1012.78 1013.00
1006.54 1006.85 1007.16 1007.51 1007.91 1008.34 1008.77 1009.16 1009.45 1009.62 1009.66 1009.59 1009.46 1009.33 1009.26 1009.28 1009.43 1009.68 1010.01 1010.35 1010.66 1010.88 1011.01 1011.04 1011.02 1010.98 1010.98 1011.04 1011.18 1011.40 1011.66 1011.94 1012.18 1012.37 1012.48 1012.52 1012.53 1012.53 1012.56 1012.64 1012.78 1012.98 1013.20
1005.85 1006.23 1006.60 1007.01 1007.47 1007.96 1008.45 1008.88 1009.22 1009.43 1009.49 1009.44 1009.33 1009.22 1009.18 1009.24 1009.43 1009.73 1010.11 1010.50 1010.85 1011.11 1011.26 1011.31 1011.28 1011.23 1011.21 1011.25 1011.37 1011.57 1011.81 1012.08 1012.31 1012.49 1012.59 1012.63 1012.63 1012.63 1012.65 1012.73 1012.88 1013.09 1013.33
Thickness
5807 5805 5802 5801 5800 5799 5798 5797 5796 5795 5794 5793 5792 5792 5791 5791 5791 5790 5790 5790 5789 5787 5786 5783 5782 5781 5779 5777 5776 5774 5772 5771 5769 5768 5767 5765 5765 5764 5762 5761 5760 5759 5757
5810 5805 5801 5800 5799 5798 5797 5796 5794 5794 5793 5792 5791 5791 5790 5789 5789 5789 5789 5788 5788 5786 5785 5783 5781 5779 5778 5776 5775 5773 5771 5770 5768 5767 5766 5765 5764 5763 5761 5760 5759 5758 5756
5811 5805 5802 5800 5799 5797 5796 5795 5794 5792 5792 5791 5790 5789 5788 5788 5788 5788 5788 5787 5786 5785 5784 5782 5780 5778 5777 5775 5774 5772 5771 5769 5768 5766 5765 5764 5763 5761 5760 5758 5757 5756 5754
5812 5807 5802 5799 5797 5796 5795 5793 5792 5791 5791 5790 5789 5788 5787 5787 5787 5787 5786 5785 5785 5784 5783 5781 5779 5778 5776 5774 5773 5772 5770 5769 5768 5767 5765 5764 5762 5760 5759 5758 5756 5754 5753
5812 5806 5801 5798 5796 5795 5793 5792 5791 5791 5790 5789 5788 5787 5786 5785 5785 5785 5785 5784 5784 5783 5782 5781 5779 5777 5776 5774 5772 5771 5770 5769 5768 5767 5766 5764 5762 5759 5759 5757 5755 5753 5751
5811 5807 5801 5798 5796 5794 5793 5792 5791 5790 5789 5788 5787 5786 5785 5784 5784 5783 5783 5783 5782 5781 5781 5780 5778 5777 5775 5773 5772 5771 5770 5769 5768 5768 5767 5764 5761 5758 5757 5755 5754 5752 5750
5813 5807 5802 5798 5796 5794 5793 5792 5791 5789 5788 5787 5786 5785 5784 5783 5783 5782 5781 5781 5781 5780 5780 5779 5778 5777 5775 5774 5773 5771 5771 5770 5769 5768 5766 5763 5760 5758 5756 5755 5753 5751 5750
5813 5809 5802 5798 5796 5794 5793 5792 5790 5789 5788 5787 5786 5784 5783 5783 5782 5781 5780 5780 5779 5779 5778 5778 5777 5776 5775 5773 5772 5772 5771 5769 5769 5768 5765 5762 5759 5758 5756 5754 5752 5751 5749
5815 5810 5804 5799 5796 5794 5793 5792 5790 5789 5788 5787 5785 5784 5783 5782 5782 5780 5780 5779 5778 5777 5777 5777 5776 5775 5774 5773 5772 5771 5770 5769 5768 5767 5764 5761 5758 5757 5755 5753 5752 5750 5749
5813 5810 5806 5803 5799 5796 5794 5792 5790 5789 5788 5787 5786 5785 5784 5783 5782 5781 5779 5778 5777 5777 5776 5776 5775 5775 5774 5773 5772 5771 5770 5769 5769 5766 5763 5759 5757 5756 5754 5752 5751 5750 5748
5808 5808 5807 5804 5801 5800 5798 5794 5792 5791 5789 5788 5787 5786 5785 5784 5783 5781 5780 5778 5777 5776 5775 5775 5774 5774 5773 5772 5771 5771 5770 5770 5769 5766 5762 5759 5756 5755 5753 5752 5751 5749 5748
5802 5804 5805 5803 5802 5801 5800 5797 5795 5794 5791 5789 5788 5787 5786 5785 5783 5782 5780 5778 5777 5776 5775 5774 5773 5773 5772 5772 5771 5770 5770 5771 5769 5765 5760 5758 5756 5755 5753 5752 5750 5749 5748
5802 5803 5803 5802 5801 5800 5799 5798 5797 5795 5793 5791 5789 5788 5786 5785 5783 5782 5780 5778 5776 5776 5775 5774 5773 5772 5772 5773 5772 5772 5771 5771 5769 5765 5760 5758 5756 5755 5753 5751 5750 5748 5747
5802 5801 5802 5801 5799 5798 5798 5798 5797 5796 5794 5793 5790 5789 5786 5784 5783 5782 5780 5779 5777 5777 5776 5775 5774 5774 5773 5773 5772 5772 5772 5771 5769 5764 5760 5758 5756 5754 5753 5751 5750 5749 5747
5801 5801 5801 5800 5798 5798 5797 5797 5798 5797 5796 5794 5791 5789 5787 5785 5783 5782 5781 5779 5778 5777 5777 5775 5774 5774 5773 5772 5772 5772 5771 5770 5768 5764 5760 5758 5756 5755 5753 5752 5750 5749 5747
5801 5801 5801 5800 5798 5797 5797 5796 5797 5797 5795 5793 5790 5788 5786 5784 5782 5781 5780 5779 5778 5777 5777 5775 5775 5774 5772 5772 5771 5771 5770 5769 5766 5764 5760 5758 5756 5754 5752 5751 5750 5748 5747
5803 5802 5802 5801 5799 5797 5796 5796 5797 5796 5795 5793 5789 5787 5785 5783 5782 5782 5780 5778 5778 5777 5777 5775 5774 5773 5771 5770 5770 5770 5768 5767 5765 5763 5761 5758 5755 5753 5752 5750 5749 5748 5746
5805 5802 5802 5803 5799 5797 5796 5795 5796 5796 5795 5792 5789 5786 5784 5783 5781 5781 5780 5778 5778 5778 5776 5775 5773 5771 5770 5769 5768 5768 5768 5766 5765 5763 5761 5759 5757 5754 5751 5750 5749 5747 5746
5806 5803 5801 5801 5798 5797 5796 5795 5794 5794 5793 5791 5789 5786 5784 5782 5781 5781 5779 5778 5777 5776 5775 5775 5773 5771 5768 5768 5768 5767 5766 5766 5765 5764 5762 5760 5757 5755 5752 5750 5748 5747 5746
5808 5805 5802 5801 5799 5798 5796 5794 5793 5793 5792 5791 5788 5786 5784 5783 5782 5780 5779 5778 5777 5775 5773 5773 5771 5771 5769 5768 5768 5766 5765 5765 5765 5763 5762 5760 5758 5756 5754 5751 5749 5747 5745
5808 5805 5802 5800 5798 5797 5794 5792 5789 5788 5789 5789 5788 5786 5785 5783 5782 5780 5779 5777 5776 5774 5772 5772 5770 5768 5767 5768 5763 5759 5762 5764 5763 5763 5762 5760 5759 5757 5755 5753 5750 5747 5745
5808 5805 5803 5800 5799 5797 5795 5794 5792 5790 5790 5789 5788 5786 5785 5783 5782 5781 5778 5777 5775 5773 5771 5770 5769 5766 5767 5768 5761 5754 5750 5753 5758 5763 5761 5759 5759 5757 5755 5754 5752 5749 5747
5810 5807 5805 5802 5800 5798 5797 5795 5793 5790 5788 5787 5785 5784 5784 5783 5782 5780 5778 5777 5775 5773 5771 5770 5769 5766 5763 5766 5766 5759 5750 5744 5750 5756 5758 5758 5757 5755 5754 5754 5752 5750 5747
5815 5812 5809 5804 5801 5799 5797 5794 5791 5786 5783 5784 5785 5784 5784 5783 5782 5780 5778 5776 5774 5773 5771 5770 5770 5768 5765 5762 5764 5766 5763 5758 5749 5745 5752 5755 5756 5754 5754 5754 5752 5749 5747
5820 5816 5811 5806 5802 5800 5798 5795 5791 5788 5787 5787 5786 5784 5783 5783 5781 5780 5778 5776 5774 5772 5771 5769 5769 5767 5766 5764 5762 5762 5761 5760 5758 5749 5744 5748 5751 5753 5754 5753 5751 5749 5747
5822 5818 5814 5808 5803 5801 5799 5796 5792 5789 5787 5785 5783 5782 5781 5781 5780 5779 5777 5775 5773 5772 5770 5769 5768 5767 5766 5765 5764 5763 5760 5757 5755 5752 5747 5745 5745 5749 5752 5752 5751 5749 5745